TimeCDT,TemperatureF,Dew PointF,Humidity,Sea Level PressureIn,VisibilityMPH,Wind Direction,Wind SpeedMPH,Gust SpeedMPH,PrecipitationIn,Events,Conditions,WindDirDegrees,DateUTC
12:54 AM,63.0,52.0,67,30.07,10.0,SSE,8.1,-,N/A,,Clear,160,2012-09-11 05:54:00
1:54 AM,61.0,53.1,75,30.07,10.0,SSE,8.1,-,N/A,,Clear,160,2012-09-11 06:54:00
2:54 AM,61.0,53.1,75,30.07,10.0,South,5.8,-,N/A,,Clear,170,2012-09-11 07:54:00
3:54 AM,60.1,53.1,78,30.08,10.0,South,5.8,-,N/A,,Clear,170,2012-09-11 08:54:00
4:54 AM,60.1,53.1,78,30.08,10.0,South,5.8,-,N/A,,Clear,170,2012-09-11 09:54:00
5:54 AM,57.0,52.0,83,30.09,10.0,SSE,5.8,-,N/A,,Clear,160,2012-09-11 10:54:00
6:54 AM,57.9,53.1,84,30.11,10.0,SSE,4.6,-,N/A,,Clear,160,2012-09-11 11:54:00
7:54 AM,61.0,54.0,78,30.13,10.0,South,5.8,-,N/A,,Clear,170,2012-09-11 12:54:00
8:54 AM,66.9,55.9,68,30.13,10.0,South,8.1,-,N/A,,Clear,190,2012-09-11 13:54:00
9:54 AM,71.1,57.0,61,30.13,10.0,SSW,15.0,-,N/A,,Clear,200,2012-09-11 14:54:00
10:54 AM,75.0,57.0,53,30.13,10.0,South,10.4,-,N/A,,Clear,180,2012-09-11 15:54:00
11:54 AM,78.1,57.0,48,30.12,10.0,South,12.7,18.4,N/A,,Clear,170,2012-09-11 16:54:00
12:54 PM,81.0,55.0,41,30.10,10.0,SW,10.4,-,N/A,,Clear,220,2012-09-11 17:54:00
1:54 PM,82.0,55.0,39,30.07,10.0,South,13.8,19.6,N/A,,Clear,180,2012-09-11 18:54:00
2:54 PM,84.0,55.0,37,30.05,10.0,South,10.4,-,N/A,,Clear,180,2012-09-11 19:54:00
3:54 PM,84.0,55.0,37,30.04,10.0,South,9.2,-,N/A,,Clear,170,2012-09-11 20:54:00
4:54 PM,84.0,54.0,35,30.03,10.0,SSE,11.5,-,N/A,,Clear,160,2012-09-11 21:54:00
5:54 PM,82.4,53.6,37,30.04,10.0,SSE,10.4,-,N/A,,Clear,160,2012-09-11 22:54:00
6:54 PM,79.0,52.0,39,30.02,10.0,South,8.1,-,N/A,,Clear,170,2012-09-11 23:54:00
7:54 PM,73.9,53.1,48,30.03,10.0,SSE,6.9,-,N/A,,Clear,160,2012-09-12 00:54:00
8:54 PM,72.0,55.0,55,30.04,10.0,South,6.9,-,N/A,,Clear,170,2012-09-12 01:54:00
9:54 PM,70.0,55.0,59,30.05,10.0,South,6.9,-,N/A,,Clear,170,2012-09-12 02:54:00
10:54 PM,69.1,55.0,61,30.06,10.0,South,8.1,-,N/A,,Clear,170,2012-09-12 03:54:00
11:54 PM,68.0,55.0,63,30.06,10.0,South,9.2,-,N/A,,Clear,170,2012-09-12 04:54:00